SWA333 KJAX-KVPS

Flight info

Callsign SWA333
Flight time 0h 47m
Altitude 32000
Route JETIN2 CAPPS SZW CEW
Aircraft B38M/M-SDE1FGHILORVWXY/HB1

Departure

Time 2026-04-26 18:27
Airport Jacksonville International Airport (KJAX)

Arrival

Time 2026-04-26 19:15
Airport Destin-Fort Walton Beach Airport (KVPS)
Time Latitude Longitude Altitude Speed Heading
2026-04-26 17:49 30.49344 -81.68501 43 ft 0 kts 264°
2026-04-26 18:04 30.49344 -81.68492 62 ft 3 kts 264°
2026-04-26 18:05 30.49347 -81.68448 43 ft 3 kts 296°
2026-04-26 18:05 30.49336 -81.68436 38 ft 0 kts 338°
2026-04-26 18:17 30.49344 -81.68437 43 ft 3 kts 355°
2026-04-26 18:18 30.49376 -81.68438 43 ft 6 kts
2026-04-26 18:18 30.49431 -81.68442 42 ft 10 kts 349°
2026-04-26 18:18 30.49482 -81.68497 41 ft 9 kts 271°
2026-04-26 18:18 30.49472 -81.68581 40 ft 13 kts 264°
2026-04-26 18:19 30.49444 -81.68682 40 ft 14 kts 233°
2026-04-26 18:19 30.49389 -81.68785 41 ft 16 kts 256°
2026-04-26 18:19 30.49377 -81.68926 41 ft 19 kts 269°
2026-04-26 18:19 30.49465 -81.69029 41 ft 20 kts 329°
2026-04-26 18:20 30.49591 -81.69114 44 ft 21 kts 330°
2026-04-26 18:20 30.49678 -81.69237 45 ft 22 kts 261°
2026-04-26 18:20 30.49626 -81.69411 44 ft 24 kts 251°
2026-04-26 18:20 30.49587 -81.69539 43 ft 27 kts 250°
2026-04-26 18:21 30.49501 -81.69825 36 ft 18 kts 252°
2026-04-26 18:21 30.49493 -81.69916 36 ft 0 kts 302°
2026-04-26 18:21 30.49499 -81.69924 35 ft 3 kts 311°
2026-04-26 18:21 30.49504 -81.69929 35 ft 0 kts 319°
2026-04-26 18:24 30.49505 -81.69930 35 ft 1 kts 321°
2026-04-26 18:24 30.49521 -81.69940 36 ft 4 kts 335°
2026-04-26 18:25 30.49559 -81.69957 36 ft 7 kts 340°
2026-04-26 18:25 30.49615 -81.69973 37 ft 9 kts 14°
2026-04-26 18:25 30.49639 -81.69940 37 ft 0 kts 69°
2026-04-26 18:26 30.49654 -81.69895 37 ft 26 kts 71°
2026-04-26 18:27 30.49801 -81.69420 42 ft 98 kts 71°
2026-04-26 18:27 30.50102 -81.68429 71 ft 152 kts 68°
2026-04-26 18:27 30.50445 -81.67211 565 ft 163 kts 69°
2026-04-26 18:27 30.50799 -81.65906 1187 ft 171 kts 69°
2026-04-26 18:28 30.51163 -81.64611 2096 ft 172 kts 70°
2026-04-26 18:28 30.51574 -81.63231 2638 ft 190 kts 71°
2026-04-26 18:28 30.52024 -81.61707 2784 ft 208 kts 70°
2026-04-26 18:28 30.52512 -81.60052 2847 ft 225 kts 69°
2026-04-26 18:29 30.53428 -81.58550 2868 ft 237 kts 31°
2026-04-26 18:29 30.54962 -81.58192 3824 ft 229 kts 348°
2026-04-26 18:29 30.56393 -81.59034 4610 ft 242 kts 312°
2026-04-26 18:29 30.57157 -81.60820 5290 ft 260 kts 279°
2026-04-26 18:30 30.57015 -81.62928 6301 ft 265 kts 259°
2026-04-26 18:30 30.56823 -81.65068 7216 ft 270 kts 275°
2026-04-26 18:30 30.56949 -81.67258 8118 ft 274 kts 274°
2026-04-26 18:30 30.57007 -81.69482 9008 ft 277 kts 272°
2026-04-26 18:31 30.57037 -81.71737 9847 ft 281 kts 272°
2026-04-26 18:31 30.57056 -81.74030 10479 ft 292 kts 272°
2026-04-26 18:31 30.57084 -81.76469 10837 ft 312 kts 272°
2026-04-26 18:31 30.57116 -81.79053 11246 ft 328 kts 272°
2026-04-26 18:32 30.57141 -81.81739 11876 ft 336 kts 272°
2026-04-26 18:32 30.57150 -81.84459 12728 ft 338 kts 271°
2026-04-26 18:32 30.57149 -81.87207 13537 ft 343 kts 271°
2026-04-26 18:32 30.57143 -81.89952 14314 ft 346 kts 271°
2026-04-26 18:33 30.57133 -81.92755 15111 ft 349 kts 271°
2026-04-26 18:33 30.57121 -81.95589 15911 ft 352 kts 271°
2026-04-26 18:33 30.57109 -81.98446 16691 ft 355 kts 271°
2026-04-26 18:33 30.57094 -82.01323 17442 ft 358 kts 271°
2026-04-26 18:34 30.57080 -82.04230 18164 ft 362 kts 271°
2026-04-26 18:34 30.57065 -82.07159 18794 ft 365 kts 270°
2026-04-26 18:34 30.57047 -82.10118 19420 ft 368 kts 270°
2026-04-26 18:34 30.57029 -82.13099 20007 ft 371 kts 270°
2026-04-26 18:35 30.57010 -82.16101 20610 ft 374 kts 270°
2026-04-26 18:35 30.56989 -82.19135 21184 ft 377 kts 270°
2026-04-26 18:35 30.56967 -82.22187 21756 ft 380 kts 270°
2026-04-26 18:35 30.56946 -82.25227 22302 ft 383 kts 270°
2026-04-26 18:36 30.56921 -82.28329 22771 ft 386 kts 270°
2026-04-26 18:36 30.56897 -82.31465 23306 ft 390 kts 270°
2026-04-26 18:36 30.56872 -82.34619 23787 ft 392 kts 270°
2026-04-26 18:36 30.56847 -82.37802 24255 ft 395 kts 270°
2026-04-26 18:37 30.56817 -82.40996 24729 ft 396 kts 270°
2026-04-26 18:37 30.56789 -82.44205 25161 ft 399 kts 270°
2026-04-26 18:37 30.56759 -82.47432 25628 ft 401 kts 270°
2026-04-26 18:37 30.56728 -82.50679 26086 ft 403 kts 270°
2026-04-26 18:38 30.56696 -82.53935 26529 ft 405 kts 270°
2026-04-26 18:38 30.56674 -82.56105 26823 ft 406 kts 270°
2026-04-26 18:38 30.56628 -82.60465 27390 ft 408 kts 270°
2026-04-26 18:38 30.56593 -82.63768 27817 ft 410 kts 270°
2026-04-26 18:39 30.56557 -82.67084 28222 ft 412 kts 271°
2026-04-26 18:39 30.56519 -82.70419 28627 ft 414 kts 271°
2026-04-26 18:39 30.56493 -82.72683 28900 ft 416 kts 271°
2026-04-26 18:39 30.56453 -82.76010 29296 ft 418 kts 271°
2026-04-26 18:40 30.56411 -82.79383 29670 ft 420 kts 270°
2026-04-26 18:40 30.56369 -82.82786 29980 ft 423 kts 271°
2026-04-26 18:40 30.56327 -82.86199 30301 ft 425 kts 271°
2026-04-26 18:40 30.56282 -82.89629 30623 ft 426 kts 271°
2026-04-26 18:41 30.56236 -82.93081 30928 ft 428 kts 271°
2026-04-26 18:41 30.56188 -82.96535 31230 ft 429 kts 271°
2026-04-26 18:41 30.56140 -83.00004 31583 ft 429 kts 271°
2026-04-26 18:41 30.56088 -83.03470 31900 ft 429 kts 271°
2026-04-26 18:42 30.55982 -83.10355 31946 ft 425 kts 271°
2026-04-26 18:42 30.55876 -83.17168 31939 ft 425 kts 271°
2026-04-26 18:43 30.55769 -83.24041 31945 ft 427 kts 271°
2026-04-26 18:43 30.55656 -83.30934 31945 ft 427 kts 271°
2026-04-26 18:44 30.55541 -83.37817 31944 ft 427 kts 271°
2026-04-26 18:44 30.55421 -83.44695 31946 ft 427 kts 271°
2026-04-26 18:45 30.55298 -83.51581 31947 ft 427 kts 271°
2026-04-26 18:45 30.55171 -83.58473 31943 ft 427 kts 271°
2026-04-26 18:46 30.55040 -83.65373 31947 ft 428 kts 271°
2026-04-26 18:46 30.54906 -83.72276 31947 ft 427 kts 271°
2026-04-26 18:47 30.54768 -83.79169 31948 ft 427 kts 271°
2026-04-26 18:47 30.54627 -83.86024 31949 ft 427 kts 271°
2026-04-26 18:48 30.54642 -83.92913 31954 ft 426 kts 274°
2026-04-26 18:48 30.54821 -83.99799 31948 ft 427 kts 274°
2026-04-26 18:49 30.54977 -84.06692 31953 ft 427 kts 274°
2026-04-26 18:49 30.55127 -84.13536 31945 ft 427 kts 274°
2026-04-26 18:50 30.55274 -84.20435 31949 ft 427 kts 274°
2026-04-26 18:50 30.55417 -84.27328 31951 ft 427 kts 274°
2026-04-26 18:51 30.55557 -84.34219 31957 ft 428 kts 274°
2026-04-26 18:51 30.55304 -84.41129 31901 ft 431 kts 267°
2026-04-26 18:52 30.55031 -84.44584 31712 ft 430 kts 267°
2026-04-26 18:52 30.54748 -84.48049 31482 ft 431 kts 267°
2026-04-26 18:52 30.54463 -84.51509 31242 ft 432 kts 267°
2026-04-26 18:52 30.54175 -84.54992 31021 ft 433 kts 267°
2026-04-26 18:53 30.53886 -84.58472 30749 ft 432 kts 266°
2026-04-26 18:53 30.53599 -84.61904 29645 ft 437 kts 266°
2026-04-26 18:53 30.53303 -84.65452 28298 ft 446 kts 266°
2026-04-26 18:53 30.53002 -84.69040 27493 ft 444 kts 266°
2026-04-26 18:54 30.52706 -84.72562 26905 ft 437 kts 266°
2026-04-26 18:54 30.52409 -84.76067 26191 ft 434 kts 266°
2026-04-26 18:54 30.52115 -84.79540 25503 ft 431 kts 266°
2026-04-26 18:54 30.51822 -84.82994 24823 ft 429 kts 265°
2026-04-26 18:55 30.51528 -84.86443 24130 ft 428 kts 265°
2026-04-26 18:55 30.51234 -84.89878 23445 ft 426 kts 265°
2026-04-26 18:55 30.50945 -84.93248 22658 ft 425 kts 265°
2026-04-26 18:55 30.50653 -84.96641 21980 ft 421 kts 265°
2026-04-26 18:56 30.50364 -84.99998 21326 ft 416 kts 265°
2026-04-26 18:56 30.50076 -85.03319 20669 ft 412 kts 265°
2026-04-26 18:56 30.49789 -85.06618 20032 ft 409 kts 265°
2026-04-26 18:56 30.49505 -85.09888 19402 ft 405 kts 265°
2026-04-26 18:57 30.49222 -85.13124 18765 ft 402 kts 265°
2026-04-26 18:57 30.49035 -85.15260 18354 ft 400 kts 264°
2026-04-26 18:57 30.48661 -85.19530 17449 ft 395 kts 265°
2026-04-26 18:57 30.48383 -85.22686 16830 ft 391 kts 265°
2026-04-26 18:58 30.48108 -85.25798 16247 ft 387 kts 265°
2026-04-26 18:58 30.47834 -85.28893 15681 ft 383 kts 265°
2026-04-26 18:58 30.47562 -85.31951 15116 ft 380 kts 265°
2026-04-26 18:58 30.47291 -85.34993 14540 ft 377 kts 266°
2026-04-26 18:59 30.47022 -85.38010 14006 ft 375 kts 266°
2026-04-26 18:59 30.46757 -85.40965 13433 ft 373 kts 266°
2026-04-26 18:59 30.46490 -85.43944 12864 ft 370 kts 266°
2026-04-26 18:59 30.46224 -85.46902 12331 ft 366 kts 266°
2026-04-26 19:00 30.45960 -85.49823 11825 ft 363 kts 266°
2026-04-26 19:00 30.45700 -85.52696 11554 ft 353 kts 266°
2026-04-26 19:00 30.45449 -85.55472 11369 ft 341 kts 266°
2026-04-26 19:00 30.45204 -85.58164 11177 ft 330 kts 266°
2026-04-26 19:01 30.44966 -85.60773 11074 ft 321 kts 266°
2026-04-26 19:01 30.44734 -85.63317 10950 ft 313 kts 267°
2026-04-26 19:01 30.44507 -85.65789 10668 ft 302 kts 266°
2026-04-26 19:01 30.44290 -85.68157 10548 ft 287 kts 267°
2026-04-26 19:02 30.44083 -85.70411 10467 ft 277 kts 267°
2026-04-26 19:02 30.43882 -85.72611 10368 ft 280 kts 266°
2026-04-26 19:02 30.43674 -85.74880 10067 ft 283 kts 267°
2026-04-26 19:02 30.43535 -85.76376 9921 ft 281 kts 267°
2026-04-26 19:03 30.43258 -85.79369 9545 ft 277 kts 267°
2026-04-26 19:03 30.43053 -85.81576 9253 ft 274 kts 267°
2026-04-26 19:03 30.42850 -85.83755 8975 ft 270 kts 266°
2026-04-26 19:03 30.42649 -85.85914 8684 ft 268 kts 266°
2026-04-26 19:04 30.42450 -85.88052 8402 ft 265 kts 266°
2026-04-26 19:04 30.42255 -85.90144 8120 ft 263 kts 266°
2026-04-26 19:04 30.42058 -85.92244 7858 ft 260 kts 266°
2026-04-26 19:04 30.41863 -85.94322 7572 ft 260 kts 266°
2026-04-26 19:05 30.41474 -85.98470 7026 ft 258 kts 266°
2026-04-26 19:05 30.41279 -86.00537 6745 ft 257 kts 265°
2026-04-26 19:05 30.41085 -86.02596 6470 ft 257 kts 266°
2026-04-26 19:06 30.40890 -86.04654 6168 ft 257 kts 265°
2026-04-26 19:06 30.40696 -86.06703 5879 ft 255 kts 265°
2026-04-26 19:06 30.40503 -86.08744 5608 ft 254 kts 265°
2026-04-26 19:06 30.40311 -86.10771 5325 ft 252 kts 265°
2026-04-26 19:07 30.40118 -86.12782 5055 ft 250 kts 265°
2026-04-26 19:07 30.39932 -86.14746 4787 ft 248 kts 265°
2026-04-26 19:07 30.39744 -86.16722 4516 ft 246 kts 265°
2026-04-26 19:07 30.39556 -86.18691 4353 ft 246 kts 264°
2026-04-26 19:08 30.39376 -86.20617 4256 ft 236 kts 263°
2026-04-26 19:08 30.39196 -86.22476 4094 ft 229 kts 263°
2026-04-26 19:08 30.39022 -86.24285 3935 ft 222 kts 263°
2026-04-26 19:08 30.38853 -86.26033 3799 ft 215 kts 263°
2026-04-26 19:09 30.38690 -86.27722 3671 ft 207 kts 263°
2026-04-26 19:09 30.38534 -86.29347 3568 ft 197 kts 263°
2026-04-26 19:09 30.38387 -86.30871 3458 ft 185 kts 263°
2026-04-26 19:09 30.38248 -86.32315 3316 ft 176 kts 263°
2026-04-26 19:10 30.38413 -86.33678 3142 ft 170 kts 294°
2026-04-26 19:10 30.38950 -86.34898 3054 ft 171 kts 296°
2026-04-26 19:10 30.39476 -86.36102 2875 ft 164 kts 296°
2026-04-26 19:10 30.40001 -86.37232 2656 ft 157 kts 298°
2026-04-26 19:11 30.40520 -86.38305 2545 ft 150 kts 298°
2026-04-26 19:11 30.41030 -86.39344 2400 ft 145 kts 298°
2026-04-26 19:11 30.41525 -86.40349 2250 ft 143 kts 298°
2026-04-26 19:11 30.42017 -86.41347 2090 ft 142 kts 298°
2026-04-26 19:12 30.42509 -86.42342 1921 ft 142 kts 299°
2026-04-26 19:12 30.42998 -86.43333 1746 ft 141 kts 298°
2026-04-26 19:12 30.43488 -86.44321 1566 ft 141 kts 299°
2026-04-26 19:12 30.43974 -86.45301 1387 ft 139 kts 302°
2026-04-26 19:13 30.44450 -86.46261 1193 ft 135 kts 300°
2026-04-26 19:13 30.44914 -86.47201 1010 ft 134 kts 300°
2026-04-26 19:13 30.45379 -86.48129 835 ft 136 kts 299°
2026-04-26 19:13 30.45839 -86.49075 673 ft 134 kts 298°
2026-04-26 19:14 30.46311 -86.50003 463 ft 133 kts 302°
2026-04-26 19:14 30.46770 -86.50922 313 ft 131 kts 294°
2026-04-26 19:14 30.47214 -86.51846 148 ft 132 kts 300°
2026-04-26 19:14 30.47369 -86.52153 114 ft 126 kts 300°
2026-04-26 19:15 30.47892 -86.53230 100 ft 52 kts 299°
2026-04-26 19:15 30.48012 -86.53466 103 ft 16 kts 298°
2026-04-26 19:15 30.48033 -86.53511 104 ft 12 kts 298°
2026-04-26 19:15 30.48095 -86.53644 104 ft 24 kts 298°
2026-04-26 19:16 30.48199 -86.53845 106 ft 34 kts 298°
2026-04-26 19:16 30.48309 -86.54063 105 ft 23 kts 308°
2026-04-26 19:16 30.48420 -86.54066 102 ft 16 kts 32°
2026-04-26 19:16 30.48455 -86.54042 102 ft 0 kts 31°
2026-04-26 19:17 30.48465 -86.54034 109 ft 4 kts 31°
2026-04-26 19:17 30.48513 -86.54022 101 ft 11 kts 343°
2026-04-26 19:17 30.48571 -86.54107 103 ft 16 kts 301°
2026-04-26 19:18 30.48632 -86.54230 101 ft 19 kts 300°
2026-04-26 19:18 30.48704 -86.54377 102 ft 23 kts 299°
2026-04-26 19:18 30.48786 -86.54544 105 ft 24 kts 304°
2026-04-26 19:18 30.48876 -86.54723 105 ft 27 kts 300°
2026-04-26 19:19 30.48968 -86.54905 107 ft 15 kts 300°
2026-04-26 19:19 30.49049 -86.54950 103 ft 14 kts 26°
2026-04-26 19:19 30.49150 -86.54885 100 ft 19 kts 24°
2026-04-26 19:19 30.49269 -86.54844 97 ft 19 kts
2026-04-26 19:20 30.49366 -86.54837 99 ft 13 kts
2026-04-26 19:20 30.49395 -86.54836 98 ft 14 kts
2026-04-26 19:20 30.49482 -86.54839 99 ft 5 kts 339°
2026-04-26 19:20 30.49507 -86.54879 99 ft 8 kts 281°
2026-04-26 19:21 30.49509 -86.54897 101 ft 0 kts 274°